Back to catalog

FENGYUN 1C DEB *

AlivePO
NORAD 47025·DEBRIS·🇨🇳 China

Launched May 10, 1999 from Taiyuan Satellite Launch Center

Loading…

Next Passes (next 24 hours)

TLE

FreshSource: Space-Track

Epoch: Sep 13, 2026, 10:11 UTC

1 47025U 99025FBB 26256.42476943  .00003437  00000-0  90063-3 0  9991
2 47025  99.0197 126.6468 0035634 259.5522 275.8490 14.49621813667170

Track FENGYUN 1C DEB * in real time with AllMySat

Download on the App Store